Location: Unspecified
(0.0000°N, 0.0000°E)
Time: 03:42:54
(UTC+00:00)

N. Korean satellite - Visible Passes

Search period start: 20 January 2017 00:00
Search period end: 30 January 2017 00:00
Orbit: 463 x 519 km, 97.2° (Epoch: 18 January)

Date Brightness Start Highest point End Pass type
(mag) Time Alt. Az. Time Alt. Az. Time Alt. Az.
20 Jan 6.5 18:40:37 10° SSE 18:44:02 59° E 18:47:27 10° N visible
22 Jan 9.6 19:30:31 10° SW 19:32:53 17° W 19:35:14 10° WNW visible
23 Jan 7.9 19:07:20 10° S 19:10:38 41° W 19:13:55 10° NNW visible
24 Jan 6.4 18:44:54 10° SSE 18:48:22 74° E 18:51:51 10° N visible
26 Jan 9.8 19:35:10 10° SW 19:37:11 15° W 19:39:14 10° WNW visible
27 Jan 8.4 19:11:44 10° SSW 19:14:55 34° W 19:18:08 10° NW visible
28 Jan 6.5 18:49:10 10° S 18:52:39 90° NW 18:56:11 10° N visible
